YO3GTS-13 Weather Reports


time (UTC)temp
C
wind
direction
speed
KPH
gust
KPH
rain 1hr
cm
rain 24hr
cm
rain mn
cm
humidity
%
barometer
mb
20260906052015 20 193 11.3 14.5 0.00 0.00 0.00 59 1024.2
20260906051016 20 199 11.3 14.5 0.00 0.00 0.00 61 1024.1
20260906045459 19 203 11.3 16.1 0.00 0.00 0.00 62 1023.9
20260906044458 18 208 11.3 19.3 0.00 0.00 0.00 62 1023.7
20260906043456 18 209 11.3 14.5 0.00 0.00 0.00 62 1023.7
20260906042454 18 207 11.3 16.1 0.00 0.00 0.00 62 1023.5
20260906041513 18 206 11.3 17.7 0.00 0.00 0.00 61 1023.3
20260906040450 18 208 11.3 14.5 0.00 0.00 0.00 61 1023.1
20260906035508 19 206 11.3 14.5 0.00 0.00 0.00 61 1022.8
20260906034506 19 206 11.3 17.7 0.00 0.00 0.00 61 1022.7
20260906033444 19 204 11.3 14.5 0.00 0.00 0.00 61 1022.9
20260906032502 19 203 11.3 14.5 0.00 0.00 0.00 62 1022.9
20260906031440 20 203 11.3 19.3 0.00 0.00 0.00 62 1022.7
20260906030440 20 204 11.3 16.1 0.00 0.00 0.00 62 1022.5
20260906025436 20 205 11.3 17.7 0.00 0.00 0.00 62 1022.2
20260906024439 20 201 11.3 17.7 0.00 0.00 0.00 61 1021.8
20260906023432 20 204 11.3 14.5 0.00 0.00 0.00 61 1021.9
20260906022431 20 204 11.3 16.1 0.00 0.00 0.00 61 1021.8
20260906021428 20 203 11.3 16.1 0.00 0.00 0.00 61 1021.4
20260906020426 20 204 11.3 19.3 0.00 0.00 0.00 62 1021.3
20260906015444 21 205 11.3 14.5 0.00 0.00 0.00 62 1021.2
20260906014442 21 204 11.3 17.7 0.00 0.00 0.00 62 1021.2
20260906013420 21 202 11.3 16.1 0.00 0.00 0.00 62 1021.2
20260906012418 21 200 11.3 16.1 0.00 0.00 0.00 62 1021.0
20260906011418 21 200 11.3 17.7 0.00 0.00 0.00 61 1020.7
20260906010415 21 199 11.3 16.1 0.00 0.00 0.00 61 1020.5
20260906005412 21 200 11.3 17.7 0.00 0.00 0.00 60 1020.3
20260906004410 21 199 11.3 14.5 0.00 0.00 0.00 60 1020.2
20260906003409 22 198 11.3 16.1 0.00 0.00 0.00 59 1020.0
20260906002447 22 197 11.3 24.1 0.00 0.00 0.00 59 1020.0
20260906001424 22 196 11.3 16.1 0.00 0.00 0.00 59 1019.9
20260906000403 22 197 11.3 14.5 0.00 0.00 0.00 59 1019.9
20260905235402 22 199 11.3 17.7 0.00 0.00 0.00 60 1019.9
20260905234400 22 197 11.3 16.1 0.00 0.00 0.00 59 1020.0
20260905232354 22 197 11.3 14.5 0.00 0.00 0.00 59 1020.1
20260905231352 22 197 11.3 14.5 0.00 0.00 0.00 59 1020.0
20260905230350 23 199 11.3 17.7 0.00 0.00 0.00 58 1019.8
20260905225348 23 199 11.3 17.7 0.00 0.00 0.00 57 1019.7
20260905224346 23 198 11.3 17.7 0.00 0.00 0.00 56 1019.7
20260905223405 23 198 11.3 16.1 0.00 0.00 0.00 57 1019.6
20260905222343 23 199 11.3 14.5 0.00 0.00 0.00 57 1019.4
20260905221339 23 201 11.3 17.7 0.00 0.00 0.00 59 1019.2
20260905220343 23 201 11.3 17.7 0.00 0.00 0.00 59 1019.2
20260905215336 23 200 11.3 16.1 0.00 0.00 0.00 58 1019.0
20260905214333 23 200 11.3 17.7 0.00 0.00 0.00 58 1018.9
20260905213352 23 199 11.3 16.1 0.00 0.00 0.00 57 1018.8
20260905212330 23 200 11.3 14.5 0.00 0.00 0.00 56 1018.8
20260905211328 23 201 11.3 14.5 0.00 0.00 0.00 57 1018.8
20260905210325 23 201 11.3 17.7 0.00 0.00 0.00 55 1018.8
20260905205325 23 201 11.3 14.5 0.00 0.00 0.00 57 1018.8
20260905204342 23 202 11.3 16.1 0.00 0.00 0.00 56 1018.8
20260905203320 23 200 11.3 17.7 0.00 0.00 0.00 55 1018.7
20260905202318 23 199 11.3 14.5 0.00 0.00 0.00 54 1018.7
20260905200315 24 199 11.3 16.1 0.00 0.00 0.00 55 1018.7
20260905195314 24 201 11.3 17.7 0.00 0.00 0.00 54 1018.6
20260905190302 25 200 11.3 14.5 0.00 0.00 0.00 51 1018.6
20260905185300 25 202 9.7 14.5 0.00 0.00 0.00 50 1018.7
20260905184259 25 202 9.7 16.1 0.00 0.00 0.00 50 1018.7
20260905183316 25 199 9.7 14.5 0.00 0.00 0.00 50 1018.7
20260905182314 26 199 11.3 14.5 0.00 0.00 0.00 48 1018.6
20260905181333 26 198 11.3 16.1 0.00 0.00 0.00 47 1018.6
20260905180250 26 198 9.7 14.5 0.00 0.00 0.00 46 1018.6
20260905175248 27 200 11.3 14.5 0.00 0.00 0.00 45 1018.5
20260905174306 27 200 11.3 14.5 0.00 0.00 0.00 45 1018.6
20260905173244 27 198 9.7 14.5 0.00 0.00 0.00 44 1018.5
20260905172244 28 194 9.7 14.5 0.00 0.00 0.00 42 1018.4
20260905171240 28 196 9.7 14.5 0.00 0.00 0.00 41 1018.3
20260905170238 28 196 9.7 12.9 0.00 0.00 0.00 41 1018.3
20260905165236 29 194 11.3 16.1 0.00 0.00 0.00 40 1018.3
20260905164235 29 194 9.7 14.5 0.00 0.00 0.00 39 1018.3
20260905163231 30 192 9.7 14.5 0.00 0.00 0.00 39 1018.3
20260905162250 30 191 11.3 14.5 0.00 0.00 0.00 38 1018.3
20260905161229 30 192 11.3 16.1 0.00 0.00 0.00 37 1018.3
20260905160227 31 189 11.3 17.7 0.00 0.00 0.00 37 1018.3
20260905155223 31 191 11.3 14.5 0.00 0.00 0.00 36 1018.3
20260905154222 31 188 11.3 14.5 0.00 0.00 0.00 36 1018.3
20260905153220 31 189 11.3 14.5 0.00 0.00 0.00 35 1018.4
20260905152218 31 187 11.3 16.1 0.00 0.00 0.00 35 1018.6
20260905151215 32 187 11.3 14.5 0.00 0.00 0.00 35 1018.6
20260905150214 32 187 11.3 16.1 0.00 0.00 0.00 34 1018.7
20260905145213 32 186 11.3 14.5 0.00 0.00 0.00 34 1018.7
20260905144210 32 206 11.3 16.1 0.00 0.00 0.00 35 1018.7
20260905143208 32 197 11.3 14.5 0.00 0.00 0.00 34 1018.7
20260905142206 32 185 11.3 17.7 0.00 0.00 0.00 35 1018.7
20260905141205 32 191 11.3 17.7 0.00 0.00 0.00 34 1018.8
20260905140202 32 188 11.3 17.7 0.00 0.00 0.00 35 1018.8
20260905135159 32 188 11.3 14.5 0.00 0.00 0.00 35 1018.9
20260905134159 33 187 11.3 14.5 0.00 0.00 0.00 34 1018.9
20260905133155 33 183 11.3 16.1 0.00 0.00 0.00 35 1019.1
20260905132154 33 184 11.3 16.1 0.00 0.00 0.00 34 1019.2
20260905131152 34 187 11.3 16.1 0.00 0.00 0.00 33 1019.2
20260905130151 35 186 11.3 14.5 0.00 0.00 0.00 32 1019.4
20260905125149 36 186 11.3 16.1 0.00 0.00 0.00 32 1019.4
20260905124146 37 188 9.7 14.5 0.00 0.00 0.00 31 1019.6
20260905123144 37 187 9.7 16.1 0.00 0.00 0.00 30 1019.9
20260905122141 37 208 9.7 12.9 0.00 0.00 0.00 31 1020.0
20260905121139 37 198 9.7 12.9 0.00 0.00 0.00 31 1020.1
20260905120140 37 201 9.7 14.5 0.00 0.00 0.00 31 1020.3
20260905115135 37 207 9.7 14.5 0.00 0.00 0.00 31 1020.3
20260905114134 37 205 8.0 12.9 0.00 0.00 0.00 32 1020.3
20260905113132 36 196 9.7 16.1 0.00 0.00 0.00 33 1020.5
20260905112210 35 196 9.7 14.5 0.00 0.00 0.00 33 1020.5
20260905111128 35 195 9.7 14.5 0.00 0.00 0.00 34 1020.5
20260905110126 34 194 9.7 14.5 0.00 0.00 0.00 34 1020.5
20260905105204 34 196 9.7 16.1 0.00 0.00 0.00 35 1020.6
20260905104122 34 197 9.7 16.1 0.00 0.00 0.00 34 1020.8
20260905103120 34 197 9.7 14.5 0.00 0.00 0.00 35 1020.8
20260905102119 35 208 6.4 9.7 0.00 0.00 0.00 34 1020.8
20260905101136 35 209 6.4 14.5 0.00 0.00 0.00 34 1020.9
20260905100113 35 209 6.4 14.5 0.00 0.00 0.00 33 1020.9
20260905095113 36 209 6.4 14.5 0.00 0.00 0.00 33 1020.9
20260905094109 36 209 8.0 11.3 0.00 0.00 0.00 33 1020.9
20260905093108 36 209 8.0 11.3 0.00 0.00 0.00 33 1020.9
20260905092105 36 212 6.4 11.3 0.00 0.00 0.00 34 1021.0
20260905091104 36 212 8.0 11.3 0.00 0.00 0.00 34 1021.1
20260905085100 35 211 6.4 11.3 0.00 0.00 0.00 37 1021.2
20260905084058 34 212 8.0 11.3 0.00 0.00 0.00 39 1021.3
20260905083055 33 209 6.4 11.3 0.00 0.00 0.00 40 1021.4
20260905082055 33 211 8.0 12.9 0.00 0.00 0.00 41 1021.5
20260905081052 32 210 8.0 11.3 0.00 0.00 0.00 41 1021.6
20260905080049 32 202 8.0 14.5 0.00 0.00 0.00 42 1021.6
20260905075108 32 204 9.7 14.5 0.00 0.00 0.00 43 1021.6
20260905074046 31 195 9.7 17.7 0.00 0.00 0.00 43 1021.5
20260905073043 31 189 9.7 14.5 0.00 0.03 0.00 44 1021.5
20260905072102 30 188 9.7 14.5 0.00 0.03 0.00 45 1021.5
20260905071040 30 188 11.3 16.1 0.00 0.03 0.00 45 1021.6
20260905070050 30 189 11.3 16.1 0.00 0.03 0.00 47 1021.5
20260905065116 29 186 11.3 17.7 0.00 0.03 0.00 48 1021.5
20260905064034 28 189 11.3 16.1 0.00 0.03 0.00 50 1021.4
20260905063052 28 188 11.3 14.5 0.00 0.03 0.00 52 1021.3
20260905062030 27 188 9.7 14.5 0.00 0.03 0.00 53 1021.2
20260905061029 26 190 11.3 14.5 0.00 0.03 0.00 55 1021.1
20260905060036 26 187 11.3 16.1 0.00 0.03 0.00 57 1021.0
20260905055024 25 192 11.3 14.5 0.00 0.03 0.00 60 1021.1
20260905054021 24 196 11.3 14.5 0.00 0.03 0.00 62 1021.0
20260905053019 23 199 9.7 14.5 0.00 0.03 0.00 65 1021.1